カタログに戻る

FENGYUN 1C DEB

運用中PO
NORAD 30445·DEBRIS·🇨🇳 China

打ち上げ May 10, 1999 から Taiyuan Satellite Launch Center

Loading…

次のパス (今後24時間)

TLE

最新Source: Space-Track

元期: Sep 14, 2026, 15:32 UTC

1 30445U 99025AFG 26257.64746863  .00001054  00000-0  26863-3 0  9995
2 30445  98.8672 227.6447 0102192 267.4052  91.5439 14.49887973 31792

AllMySatでFENGYUN 1C DEBをリアルタイム追跡

Download on the App Store